This is the latest recevied weather packets stored in our database for station/object W0AKY-13. If no packets are shown the sender has not sent any weather packets the latest 10 day(s).
| Time | Temp. | Humidity | Pressure | Rain* | Wind** | Luminosity | Snow |
|---|---|---|---|---|---|---|---|
| 1777532211 | 10° C | 73% | 1020 hPa | 0 mm | - | 0 W/m² | - |
| 1777531907 | 10° C | 74% | 1020.1 hPa | 0 mm | - | 0 W/m² | - |
| 1777531603 | 10° C | 76% | 1020.2 hPa | 0 mm | - | 0 W/m² | - |
| 1777531300 | 10° C | 77% | 1020.1 hPa | 0 mm | - | 0 W/m² | - |
| 1777530998 | 10° C | 77% | 1019.8 hPa | 0 mm | - | 0 W/m² | - |
| 1777530695 | 10.56° C | 77% | 1020.1 hPa | 0 mm | - | 0 W/m² | - |
| 1777530393 | 10° C | 73% | 1020 hPa | 0 mm | - | 0 W/m² | - |
| 1777530088 | 10° C | 75% | 1020 hPa | 0 mm | - | 0 W/m² | - |
| 1777529786 | 10° C | 75% | 1019.9 hPa | 0 mm | - | 0 W/m² | - |
| 1777529482 | 10° C | 75% | 1019.9 hPa | 0 mm | - | 0 W/m² | - |
| 1777529180 | 10° C | 77% | 1019.9 hPa | 0 mm | - | 0 W/m² | - |
| 1777528875 | 10° C | 75% | 1019.7 hPa | 0 mm | - | 0 W/m² | - |
| 1777528572 | 9.44° C | 76% | 1019.8 hPa | 0 mm | - | 0 W/m² | - |
| 1777528270 | 10° C | 76% | 1019.9 hPa | 0 mm | - | 0 W/m² | - |
| 1777527968 | 9.44° C | 77% | 1019.9 hPa | 0 mm | - | 0 W/m² | - |
| 1777527664 | 9.44° C | 77% | 1019.7 hPa | 0 mm | - | 0 W/m² | - |
| 1777527359 | 9.44° C | 78% | 1019.8 hPa | 0 mm | - | 0 W/m² | - |
| 1777527055 | 8.89° C | 79% | 1019.7 hPa | 0 mm | - | 0 W/m² | - |
| 1777526751 | 8.33° C | 81% | 1019.8 hPa | 0 mm | - | 0 W/m² | - |
| 1777526446 | 8.33° C | 84% | 1019.6 hPa | 0 mm | - | 0 W/m² | - |
| 1777526145 | 8.33° C | 87% | 1019.7 hPa | 0 mm | - | 0 W/m² | - |
| 1777525843 | 8.33° C | 86% | 1019.6 hPa | 0 mm | - | 0 W/m² | - |
| 1777525541 | 8.33° C | 84% | 1019.7 hPa | 0 mm | - | 0 W/m² | - |
| 1777525238 | 8.33° C | 82% | 1019.9 hPa | 0 mm | - | 0 W/m² | - |
| 1777524933 | 7.78° C | 81% | 1020.1 hPa | 0 mm | - | 0 W/m² | - |
* Rain latest hour (hover to see other rain measurements)
** Current wind speed in m/s (hover to see current wind gust speed)